Location: ?astrovice
(49.6513°N, 14.9287°E)
Time: 08:09:23
(UTC+00:00)

Daily predictions for brighter satellites

Satellite Brightness Start Highest point End
(mag) Time Altitude Azimuth Time Altitude Azimuth Time Altitude Azimuth
IRS-1A Rocket 4.4 18:06:13 10° SSE 18:11:58 76° ENE 18:17:51 10° NNW
Cosmos 1980 Rocket 4.4 18:12:27 10° N 18:14:18 11° NNE 18:16:09 10° NE
SJ-11-01 4.4 18:10:02 10° SSE 18:14:46 87° WSW 18:19:33 10° NNW
ATLAS 2AS CENTAUR R/B 3.0 18:08:49 10° NW 18:16:32 83° SW 18:23:34 10° SE
STARLINK-1192 4.0 18:12:54 10° WNW 18:17:01 61° NNE 18:21:08 10° E
SeaSat 1 2.4 18:13:29 10° NNE 18:18:28 80° ESE 18:23:24 10° SSW
STARLINK-1234 2.9 18:17:13 10° WNW 18:20:21 76° SSW 18:23:28 10° ESE
STARLINK-1209 3.0 18:17:41 10° WNW 18:20:48 72° SSW 18:23:55 10° ESE
STARLINK-1233 2.9 18:18:05 10° WNW 18:21:14 89° NNE 18:24:23 10° ESE
STARLINK-1212 2.9 18:18:33 10° WNW 18:21:42 89° NNE 18:24:50 10° ESE
ATLAS 5 CENTAUR R/B 2.0 18:18:13 10° S 18:22:03 37° ESE 18:26:20 10° NE
STARLINK-1244 3.9 18:17:58 10° WNW 18:22:06 63° NNE 18:26:13 10° E
STARLINK-1105 2.9 18:18:59 10° WNW 18:22:08 89° NNW 18:25:17 10° ESE
STARLINK-1206 2.8 18:19:27 10° WNW 18:22:35 90° SE 18:25:43 10° ESE
STARLINK-1247 2.9 18:19:55 10° WNW 18:23:03 89° WSW 18:26:10 10° ESE
STARLINK-1227 2.9 18:20:19 10° WNW 18:23:28 89° SSW 18:26:37 10° ESE
STARLINK-1218 2.8 18:20:49 10° WNW 18:23:57 88° SSW 18:27:04 10° ESE
COSMOS 2455 3.0 18:18:13 10° NNW 18:24:14 63° NE 18:30:12 10° SE
STARLINK-1226 2.9 18:21:15 10° WNW 18:24:24 88° SSW 18:27:30 10° ESE
H-2A R/B 2.0 18:19:16 10° SSE 18:24:26 85° ENE 18:29:30 10° NNW
Cosmos 1603 4.2 18:19:03 10° SW 18:24:38 66° WNW 18:30:15 10° NNE
STARLINK-1254 2.9 18:21:41 10° WNW 18:24:50 88° SSW 18:27:57 10° ESE
STARLINK-1215 2.8 18:22:10 10° WNW 18:25:18 87° SSW 18:28:22 10° ESE
STARLINK-1231 2.8 18:22:37 10° WNW 18:25:45 87° SSW 18:28:48 10° ESE
STARLINK-1232 2.8 18:23:31 10° WNW 18:26:40 86° SSW 18:29:41 11° ESE
STARLINK-1138 3.9 18:22:52 10° WNW 18:27:01 65° NNE 18:31:08 10° E
STARLINK-1217 2.9 18:23:59 10° WNW 18:27:07 85° SSW 18:30:07 11° ESE
STARLINK-1208 2.9 18:24:23 10° WNW 18:27:33 85° SSW 18:30:33 11° ESE
Abrixas rocket 2.4 18:24:56 10° W 18:27:49 49° SSW 18:30:32 11° ESE
STARLINK-1229 2.9 18:24:52 10° WNW 18:28:00 84° SSW 18:30:58 11° ESE
STARLINK-1271 2.9 18:25:19 10° WNW 18:28:28 84° SSW 18:31:25 11° ESE
STARLINK-1270 2.9 18:25:47 10° WNW 18:28:55 83° SSW 18:31:51 11° ESE
STARLINK-1154 2.9 18:26:14 10° WNW 18:29:22 83° SSW 18:32:17 11° ESE
STARLINK-1197 2.9 18:27:08 10° WNW 18:30:15 82° SSW 18:33:09 12° ESE
STARLINK-1189 2.9 18:27:34 10° WNW 18:30:42 81° SSW 18:33:34 12° ESE
STARLINK-1198 2.9 18:28:03 10° WNW 18:31:10 81° SSW 18:34:01 12° ESE
STARLINK-1188 2.9 18:28:28 10° WNW 18:31:36 80° SSW 18:34:26 12° ESE
Cosmos 1140 Rocket 3.8 18:26:54 10° S 18:31:46 43° ESE 18:36:38 10° NE
STARLINK-1143 3.8 18:27:51 10° WNW 18:32:00 67° NNE 18:36:00 11° E
STARLINK-1235 3.1 18:29:08 10° WNW 18:32:17 67° SSW 18:35:09 12° SE
STARLINK-1187 3.0 18:29:33 10° WNW 18:32:42 73° SSW 18:35:33 12° ESE
STARLINK-1199 2.9 18:30:25 10° WNW 18:33:35 78° SSW 18:36:21 13° ESE
Ariane Rocket 3.3 18:28:40 10° S 18:33:43 71° WSW 18:38:48 10° NNW
STARLINK-1191 2.9 18:30:52 10° WNW 18:34:01 78° SSW 18:36:47 13° ESE
STARLINK-1210 2.9 18:31:20 10° WNW 18:34:29 77° SSW 18:37:13 13° ESE
STARLINK-1221 2.9 18:31:47 10° WNW 18:34:55 77° SSW 18:37:40 13° ESE
STARLINK-1219 2.9 18:32:14 10° WNW 18:35:23 76° SSW 18:38:06 13° ESE
STARLINK-1222 2.9 18:32:40 10° WNW 18:35:49 76° SSW 18:38:31 13° ESE
STARLINK-1211 2.9 18:33:09 10° WNW 18:36:17 75° SSW 18:38:58 13° ESE
STARLINK-1214 2.9 18:33:35 10° WNW 18:36:43 75° SSW 18:39:24 14° ESE
STARLINK-1241 3.8 18:32:52 10° WNW 18:37:01 69° NNE 18:40:49 12° E
STARLINK-1245 2.9 18:34:04 10° WNW 18:37:11 74° SSW 18:39:48 14° ESE
STARLINK-1238 2.9 18:34:28 10° WNW 18:37:37 74° SSW 18:40:15 14° ESE
ERBS 3.0 18:35:16 10° NW 18:38:32 44° NNE 18:41:22 13° E
STARLINK-1205 2.9 18:35:25 10° WNW 18:38:32 72° SSW 18:41:07 14° ESE
STARLINK-1204 2.9 18:35:52 10° WNW 18:38:59 72° SSW 18:41:33 14° ESE
Meteor 1-16 Rocket 4.3 18:33:42 10° SSW 18:39:09 83° WNW 18:44:50 10° N
CZ-2C R/B 3.0 18:34:28 10° S 18:39:18 79° WSW 18:44:05 10° NNW
Cosmos 614 Rocket 3.9 18:34:24 10° SSW 18:39:36 78° ESE 18:44:50 10° NNE
STARLINK-1239 3.7 18:37:50 10° WNW 18:42:00 72° NNE 18:45:35 13° ESE
ATLAS CENTAUR R/B 3.5 18:40:16 10° NNW 18:42:42 15° NNE 18:45:03 10° ENE
MONITOR-E 4.3 18:40:06 10° S 18:42:42 60° WSW 18:45:21 10° NNW
STARLINK-29 3.3 18:41:07 10° SW 18:44:09 42° SSE 18:47:14 10° ENE
Cosmos 1190 Rocket 4.0 18:40:25 10° S 18:45:39 64° ESE 18:50:53 10° NNE
SJ-6B 3.0 18:41:42 10° SSE 18:45:49 84° WSW 18:49:59 10° NNW
Resurs 1-3 3.8 18:41:58 10° SSE 18:46:14 53° ENE 18:50:31 10° N
Aureole 1 Rocket 4.0 18:39:34 10° SSW 18:46:51 79° ESE 18:52:27 10° NNE
STARLINK-1240 3.7 18:42:49 10° WNW 18:46:59 74° NNE 18:50:22 15° ESE
Cosmos 1300 3.5 18:44:20 10° SSE 18:47:43 31° E 18:51:09 10° NNE
BREEZE-M DEB (TANK) 4.0 18:42:02 10° WNW 18:48:33 54° SSW 18:50:46 16° SE
SL-24 R/B 3.9 18:47:19 10° NNE 18:51:16 52° E 18:54:53 10° S
STARLINK-60 2.9 18:48:26 10° WSW 18:51:43 85° SSE 18:55:01 10° ENE
STARLINK-1216 3.7 18:47:47 10° WNW 18:51:57 77° NNE 18:55:08 17° ESE
Terra 4.0 18:52:26 10° ENE 18:53:19 10° NE 18:54:11 10° NE
CZ-2C R/B 3.8 18:49:27 10° NNE 18:54:07 57° E 18:58:38 10° S
STARLINK-1237 3.6 18:52:45 10° WNW 18:56:55 81° NNE 18:59:54 18° ESE
Cosmos 2058 Rocket 3.0 18:55:38 10° S 19:00:08 80° E 19:04:40 10° NNE
STARLINK-1202 3.6 18:57:45 10° WNW 19:01:56 84° NNE 19:04:42 20° ESE
Cosmos 1726 Rocket 4.1 18:58:27 10° SSW 19:02:50 65° WNW 19:07:18 10° N
SL-08 RB Rocket 4.0 18:58:18 10° S 19:02:50 70° WSW 19:07:30 10° NNW
Cosmos 1461 4.1 18:59:06 10° NW 19:03:26 45° WSW 19:07:52 10° SSE
STARLINK-1228 4.0 19:01:16 10° W 19:03:57 32° SW 19:05:31 19° SSE
DMSP B5D2-2 4.1 19:00:05 10° NNE 19:05:15 57° E 19:10:24 10° S
Cosmos 921 Rocket 3.1 19:01:21 10° NNW 19:05:32 70° WSW 19:09:42 10° S
Cosmos 2341 Rocket 4.0 19:00:00 10° N 19:06:25 74° E 19:12:48 10° SSE
SL-4 R/B 1.7 19:04:49 10° W 19:08:13 74° NNW 19:10:57 15° ENE
ERS-1 Rocket 4.4 19:07:02 16° E 19:09:22 22° ENE 19:13:11 10° N
CZ-4C R/B 3.8 19:04:16 10° NW 19:10:20 36° NNE 19:16:38 13° E
Cosmos 407 Rocket 3.7 19:06:09 10° SSW 19:11:16 71° WNW 19:16:25 10° NNE
Cosmos 1908 4.3 19:07:33 10° SSW 19:11:18 47° WNW 19:15:06 10° N
Cosmos 1340 Rocket 3.0 19:07:42 10° SSW 19:11:45 74° WNW 19:15:47 10° N
STARLINK-1246 3.6 19:07:42 10° WNW 19:11:53 88° SSW 19:14:15 25° ESE
Cosmos 1408 4.3 19:09:30 10° NNE 19:12:04 18° ENE 19:12:35 17° E
RESURS DK-1 3.7 19:08:53 10° NNW 19:12:28 27° NE 19:14:21 19° E
STARLINK-1201 3.7 19:09:57 10° WNW 19:13:05 45° SSW 19:14:33 26° SSE
Cosmos 2228 4.4 19:09:43 10° SSW 19:13:49 43° WNW 19:18:01 10° N
Cosmos 676 Rocket 3.9 19:09:36 10° S 19:14:51 68° ESE 19:20:04 10° NNE
COSMOS 2406 4.2 19:13:01 20° SE 19:15:07 24° ESE 19:19:36 10° NE
STARLINK-1224 3.6 19:12:43 10° WNW 19:16:53 84° SSW 19:19:04 27° ESE
Cosmos 2218 Rocket 4.1 19:11:28 10° N 19:17:37 57° ENE 19:22:17 18° SSE
STARLINK-1203 3.6 19:14:51 10° WNW 19:19:04 78° SSW 19:21:13 28° ESE
Cosmos 2058 3.3 19:15:23 10° N 19:19:21 45° ENE 19:21:10 27° SE
Cosmos 220 Rocket 4.0 19:15:20 10° NNW 19:19:41 71° ENE 19:22:12 25° SE
MetOp-A 4.4 19:14:25 10° S 19:19:46 71° WSW 19:25:09 10° NNW
Resurs 01 Rocket 1.5 19:17:44 17° SSE 19:21:07 82° ENE 19:25:33 10° NNW
MOS 1 Rocket 3.6 19:16:25 10° NNE 19:21:51 74° ESE 19:27:17 10° S
STARLINK-1225 3.6 19:17:42 10° WNW 19:21:52 80° SSW 19:23:51 30° ESE
CZ-2C R/B 2.5 19:17:59 10° NNE 19:23:10 69° ESE 19:28:22 10° S
STARLINK-52 2.8 19:21:18 10° WSW 19:24:29 73° SSE 19:25:57 29° ENE
STARLINK-1230 3.6 19:22:40 10° WNW 19:26:50 76° SSW 19:28:37 32° SE
BREEZE M DEB (TANK) 3.4 19:23:45 10° SSW 19:27:05 43° SE 19:36:07 10° ENE
Cosmos 1812 Rocket 3.8 19:25:20 24° SSE 19:27:37 46° E 19:31:47 10° NNE
SPOT 3 Rocket 4.2 19:23:48 10° S 19:28:54 55° W 19:34:02 10° NNW
SL-8 Rocket 4.0 19:23:35 10° N 19:29:57 81° E 19:35:13 16° SSE
Cosmos 1697 Rocket 3.6 19:24:45 10° NNW 19:29:59 36° NE 19:32:44 23° E
Cosmos 2151 4.0 19:26:38 10° N 19:30:15 27° ENE 19:30:59 26° E
Cosmos 864 Rocket 4.5 19:25:20 10° N 19:31:32 65° ENE 19:35:37 22° SSE
STARLINK-1243 3.6 19:27:38 10° WNW 19:31:47 72° SSW 19:33:24 35° SE
FALCON 9 DEB 3.0 19:29:20 10° WSW 19:32:50 83° SSE 19:34:33 28° ENE
Iridium 2 3.6 19:33:27 27° S 19:35:22 68° E 19:39:11 10° N
Cosmos 2181 Rocket 3.9 19:30:05 10° S 19:36:18 74° E 19:42:27 10° NNE
Cosmos 1954 Rocket 4.0 19:31:13 10° SSW 19:36:28 86° WNW 19:41:43 10° NNE
STARLINK-1236 3.7 19:32:38 10° WNW 19:36:46 68° SSW 19:38:11 38° SE
Cosmos 2366 rocket 3.9 19:37:53 10° N 19:44:04 82° E 19:48:11 23° SSE
Cosmos 1741 Rocket 4.2 19:41:05 20° S 19:44:27 48° ESE 19:49:34 10° NNE
Cosmos 1076 Rocket 3.4 19:40:11 10° N 19:44:29 84° E 19:46:20 34° SSE
Meteor 2-1 Rocket 4.4 19:41:06 18° S 19:45:27 60° E 19:51:18 10° NNE
STARLINK-1269 3.8 19:42:35 10° WNW 19:46:41 60° SSW 19:47:44 44° SSE
Landsat 7 3.9 19:46:17 37° SE 19:47:59 59° ENE 19:52:40 10° N
Cosmos 1959 Rocket 4.5 19:41:57 10° N 19:48:19 89° ENE 19:52:35 22° S
Cosmos 1656 3.7 19:43:14 10° NNW 19:48:56 73° ENE 19:51:23 35° SE
Cosmos 1763 Rocket 3.4 19:44:10 10° NNW 19:49:23 78° ENE 19:51:29 36° SSE
SL-16 R/B 4.3 19:47:32 10° N 19:50:54 16° NNE 19:54:15 10° ENE
STARLINK-1200 3.9 19:47:35 10° WNW 19:51:39 56° SSW 19:52:31 45° SSE
SPOT 1/Viking Rocket 3.7 19:50:06 36° SE 19:52:05 58° ENE 19:57:13 10° N
Cosmos 540 Rocket 3.9 19:48:01 10° NNW 19:53:01 45° ENE 19:54:31 35° ESE
Cosmos 2208 Rocket 4.3 19:48:48 10° NNW 19:53:54 52° ENE 19:55:32 38° ESE
Cosmos 1455 3.0 19:56:32 35° ENE 19:56:32 35° ENE 19:59:26 10° NNE
STARLINK-1192 3.9 19:52:34 10° WNW 19:56:37 52° SSW 19:57:18 46° S
Iridium 4 Rocket 2.8 19:53:38 10° N 19:57:51 87° E 19:59:06 45° S
Cosmos 2322 Rocket 4.4 19:54:40 10° N 19:57:52 15° NNE 20:01:03 10° ENE
USA 234 3.5 19:52:18 10° ENE 19:58:27 42° SE 20:04:35 10° SSW
Cosmos 1980 Rocket 3.1 19:55:01 10° NNW 20:00:09 35° NE 20:02:02 28° E
Cosmos 1892 2.7 19:57:28 10° NNW 20:01:22 80° W 20:02:13 53° S
STARLINK-1244 4.0 19:57:39 10° WNW 20:01:40 49° SSW 20:02:10 46° S
Cosmos 1814 Rocket 4.3 19:59:12 10° NNW 20:04:29 55° ENE 20:05:54 42° ESE
Cosmos 1825 2.7 20:02:19 10° N 20:05:39 44° ENE 20:05:39 44° ENE
STARLINK-1138 4.1 20:02:34 10° WNW 20:06:32 46° SW 20:06:52 45° SSW
ATLAS 5 CENTAUR R/B 3.0 20:02:33 10° WSW 20:06:38 40° NW 20:11:19 10° NE
Cosmos-2242 3.2 20:08:42 52° E 20:08:42 52° E 20:12:49 10° NNE
COSMOS 2455 4.4 20:04:41 10° NW 20:09:48 29° WSW 20:13:56 14° SSW
STARLINK-1143 4.2 20:07:33 10° WNW 20:11:30 43° SW 20:11:39 43° SSW
Meteor 2-3 Rocket 4.4 20:06:40 10° N 20:12:02 38° ENE 20:13:03 35° E
Cosmos 1356 Rocket 3.4 20:13:46 66° E 20:13:47 66° E 20:18:00 10° NNE
Cosmos 489 Rocket 4.4 20:07:56 10° NNW 20:14:11 86° ENE 20:16:28 42° SSE
ERBS 3.6 20:11:42 10° WNW 20:14:20 32° WSW 20:14:20 32° WSW
STARLINK-1241 4.4 20:12:36 10° WNW 20:16:28 40° SW 20:16:28 40° SW
SAR-Lupe-2 4.4 20:16:38 10° N 20:20:07 49° WNW 20:21:15 34° WSW
STARLINK-29 3.9 20:17:08 10° W 20:19:44 46° NW 20:19:44 46° NW
IGS 5A 3.5 20:20:27 61° SSW 20:21:02 71° WSW 20:25:11 10° NNW
ATLAS CENTAUR R/B 1.5 20:18:34 10° NW 20:22:10 58° NNE 20:22:10 58° NNE
Spot 2 Rocket 4.0 20:22:15 32° SSW 20:24:24 54° W 20:29:26 10° NNW
Cosmos 1821 Rocket 4.0 20:18:22 10° N 20:24:46 71° ENE 20:26:40 47° SSE
USA 32 3.9 20:19:48 10° N 20:25:04 89° W 20:26:23 52° S
Cosmos 1934 Rocket 4.3 20:19:48 10° N 20:25:49 47° ENE 20:26:56 42° ESE
Cosmos 2360 4.3 20:22:26 10° NNW 20:28:07 64° ENE 20:29:15 52° ESE
STARLINK-60 4.2 20:25:05 10° W 20:27:48 41° NNW 20:27:48 41° NNW
Cosmos 1850 Rocket 4.1 20:24:21 17° SSW 20:28:25 76° WNW 20:33:38 10° NNE
Cosmos 841 Rocket 3.4 20:23:15 10° NNW 20:28:35 89° WSW 20:29:32 61° SSE
Terra 1.9 20:29:53 59° E 20:30:05 59° ENE 20:34:48 10° N
Mayak 0.9 20:27:19 10° NE 20:28:23 15° NE 20:28:23 15° NE
Cosmos 2278 3.8 20:25:50 10° NNW 20:31:29 64° ENE 20:32:29 54° ESE
SPOT 5 2.4 20:31:40 80° ENE 20:31:40 80° ENE 20:36:01 10° NNW
Cosmos 2082 Rocket 3.2 20:34:09 30° ENE 20:34:09 30° ENE 20:37:38 10° NE
Meteor 2-10 Rocket 3.4 20:33:52 55° S 20:35:04 86° ESE 20:40:34 10° NNE
Cosmos 1833 Rocket 2.6 20:39:02 61° ESE 20:39:02 61° ESE 20:44:34 10° NE
CARTOSAT-1 3.5 20:39:31 80° W 20:39:31 80° W 20:43:50 10° NNW
Cosmos 1605 Rocket 4.5 20:38:14 10° N 20:44:04 43° ENE 20:44:41 41° E
Cosmos 1408 3.8 20:43:49 10° NNW 20:46:55 38° WNW 20:46:55 38° WNW
ERS-1 Rocket 3.1 20:47:01 56° SW 20:47:44 64° WSW 20:52:45 10° NNW
SL-4 R/B 3.2 20:44:33 10° WNW 20:46:33 32° WNW 20:46:33 32° WNW
RESURS DK-1 3.3 20:46:43 10° NW 20:50:15 40° W 20:50:15 40° W
Cosmos 1766 Rocket 3.9 20:48:30 10° NNW 20:52:50 62° W 20:52:50 62° W
Okean 3 Rocket 4.2 20:50:09 10° NNW 20:54:27 51° W 20:54:34 50° W
BREEZE M DEB (TANK) 4.1 20:50:05 10° W 20:53:25 33° W 20:53:25 33° W
Resurs 01 Rocket 4.3 20:56:14 10° WSW 20:58:12 13° W 21:00:11 10° WNW
COSMOS 2406 3.5 20:54:52 19° SW 20:58:57 65° WNW 21:04:40 10° NNE
CZ-4C R/B 2.8 20:52:42 10° NW 20:59:47 87° NE 21:01:49 55° SE
Meteor 1-27 4.4 21:05:11 57° ENE 21:05:11 57° ENE 21:10:31 10° NNE
Cosmos 2151 4.3 21:03:48 10° NNW 21:07:34 32° W 21:07:34 32° W
Cosmos 1697 Rocket 3.2 21:08:41 10° NW 21:14:07 48° WSW 21:14:29 47° WSW
Cosmos 2369 4.2 21:08:49 10° NW 21:14:15 49° WSW 21:14:33 48° WSW
Cosmos 1607 4.5 21:28:01 45° ENE 21:28:01 45° ENE 21:32:26 10° NE
SL-16 R/B 2.6 21:30:48 10° NNW 21:36:11 53° NE 21:36:11 53° NE
Cosmos 2360 Rocket 3.5 21:31:56 10° NNW 21:36:51 29° NE 21:37:32 29° ENE
Thor Agena Rocket 4.1 21:32:33 10° NNE 21:36:20 50° NNE 21:36:20 50° NNE
USA 234 3.3 21:35:15 10° ENE 21:41:49 79° NNW 21:48:22 10° WSW
Cosmos 2322 Rocket 2.7 21:37:48 10° NNW 21:43:04 51° NE 21:43:04 51° NE
Cosmos 1980 Rocket 2.8 21:38:56 10° NW 21:43:48 48° W 21:43:48 48° W
Cosmos 2221 4.0 21:46:37 36° N 21:46:37 36° N 21:49:17 10° N
ASTEX 1 4.4 21:50:00 42° WNW 21:50:00 42° WNW 21:54:10 10° NNW
Cosmos 1459 Rocket 4.4 21:45:42 10° N 21:51:40 52° ENE 21:51:40 52° ENE
ATLAS 5 CENTAUR R/B 4.5 21:49:17 10° NW 21:52:39 19° N 21:56:21 10° NE
Cosmos 2333 Rocket 4.1 21:54:19 10° N 21:58:35 21° NE 22:00:27 18° ENE
Cosmos 1727 Rocket 4.0 22:05:51 76° NNE 22:05:51 76° NNE 22:11:43 10° N
Mayak 0.6 22:02:30 10° N 22:04:58 29° NNW 22:04:58 29° NNW
Terra 3.9 22:08:45 19° W 22:08:45 19° W 22:11:42 10° NW
Cosmos 2016 Rocket 4.5 22:05:53 10° N 22:11:42 51° ENE 22:11:42 51° ENE
Cosmos 2082 Rocket 3.0 22:15:56 44° WNW 22:16:31 45° NW 22:21:58 10° NNE
Cosmos 1802 Rocket 4.2 22:12:38 10° N 22:18:13 62° NE 22:18:13 62° NE
Cosmos 2100 Rocket 4.0 22:15:00 10° N 22:20:40 75° N 22:20:40 75° N
Cosmos 1833 Rocket 4.3 22:20:38 21° W 22:23:19 30° NW 22:28:16 10° NNE
Cosmos 968 Rocket 4.3 22:25:40 49° N 22:25:40 49° N 22:29:42 10° NNE
Cosmos 2173 Rocket 4.1 22:20:52 10° N 22:26:16 71° N 22:26:16 71° N
Cosmos 2219 Rocket 3.6 22:29:04 10° NNW 22:33:59 30° NE 22:34:42 29° ENE
ALOS 2 4.4 22:36:50 29° NNW 22:36:50 29° NNW 22:39:05 10° NNW
CZ-4C R/B 4.1 22:41:50 10° WNW 22:46:59 28° WSW 22:46:59 28° WSW
Cosmos 2322 4.3 22:54:20 10° NNW 22:59:15 54° NNE 22:59:15 54° NNE
COSMOS 2428 3.6 22:58:09 10° NNW 23:03:33 42° NE 23:03:37 42° NE
Cosmos 839 Rocket 4.2 23:14:56 73° NE 23:14:56 73° NE 23:21:13 10° NE
SL-16 R/B 3.9 23:15:21 10° NW 23:18:02 23° WNW 23:18:02 23° WNW
Cosmos 2360 Rocket 3.2 23:15:42 10° NW 23:19:17 39° NW 23:19:17 39° NW
CZ-2D R/B 4.3 23:18:31 10° NE 23:21:40 16° E 23:21:40 16° E
USA 234 4.0 23:18:14 10° ENE 23:24:29 49° N 23:30:43 10° W
Cosmos 2322 Rocket 3.9 23:22:15 10° NW 23:24:52 23° WNW 23:24:52 23° WNW
ATLAS 5 CENTAUR R/B 4.4 23:35:12 10° NNW 23:39:08 21° NNE 23:43:31 10° ENE
MOS 1-B Rocket 4.5 23:34:00 10° N 23:40:07 58° WNW 23:40:21 58° WNW
Cosmos 2333 Rocket 2.7 23:38:02 10° NNW 23:42:26 55° NNW 23:42:26 55° NNW
Cosmos 2237 Rocket 3.5 23:39:30 10° NNW 23:44:46 37° NE 23:46:25 31° E
Cosmos 2233 Rocket 4.3 23:42:29 10° NNW 23:47:50 58° NW 23:47:50 58° NW
SL-16 R/B 3.2 23:48:42 42° E 23:49:54 47° ENE 23:55:50 10° N
Cosmos 1680 Rocket 4.4 23:45:41 10° NNW 23:49:10 43° NNW 23:49:10 43° NNW
Lacrosse 5 rocket 4.0 23:54:19 14° NE 23:54:19 14° NE 23:54:59 10° NE
